Location: Balsareny
(41.8670°N, 1.8830°E)
Time: 01:04:50
(UTC+02:00)

X-37B - Pass Details

Date: 22 June 2021
Orbit: 383 x 392 km, 45.0° (Epoch: 01 July)

Event Time Altitude Azimuth Distance (km) Brightness Sun altitude
Exits shadow 03:43:00 60° 326° (NNW) 443 0.9 -20.0°
Maximum altitude 03:43:23 69° 16° (NNE) 412 0.8 -20.0°
Drops below altitude 10° 03:46:32 10° 100° (E) 1,403 3.6 -19.7°
Sets 03:48:37 0° 103° (ESE) 2,257 4.6 -19.6°
